STARLINK-30421, 58107

Orbit data source: Space-Track

STARLINK-30421, 58107 is a payload satellite owned by SpaceX/Seattle (US) in LEO that was launched on Sat, 21 Oct 2023 UTC via an FALCON 9 launch vehicle from the Air Force Western Test Range (AFWTR). Payload-class satellites include a variety of spacecraft equipped with specific instruments for various scientific and technological missions. These include communications satellites like Starlink; space stations such as the ISS; scientific satellites like the Hubble; Earth observation satellites from companies like Planet Labs, Umbra, and HawkEye 360; GPS; miniature CubeSats for education and research; and military/defense satellites.

Loading next visibility...
Identifier
58107, 2023-161L
Orbit
LEO
Country
Flag of USUS
Related business
Manufacturer
SpaceX/Seattle
Mission
Operational Commercial Communications
Bus & Motor
STARLINK V2M, Unknown motor
Mass
730 kg wet, ~700 kg dry
Launch date (UTC)
2023-10-21 (3 years ago)
Launch vehicle
FALCON 9
Launch site
Air Force Western Test Range (AFWTR)
Object type
Payload
Rocket body
Debris
Shape & HBR
Box + 2 Pan, 17.7 m
Radar Cross Section
33.884 m², Large (>1 m²)

Expand to show TLE details & history
Last TLE update: 3 days ago

TLE from 3 days ago
0 STARLINK-30421
1 58107U 23161L   26170.91077558  .00002808  00000-0  94165-4 0  9999
2 58107  53.1610  36.2350 0001270  98.2545 261.8601 15.34412505150270
Epoch: 2026-06-19T21:51Z
TLE epoch observation values (Epoch: 2026-06-19T21:51:31.010Z)
Latitude
-0.00006°
Longitude
160.22278°
Altitude
463.691 km
Speed
7.636 km/s
True Right ascension
02h 24m 56s
True Declination
0° 00' 00"
Sunlit
Object was in daylight at epoch
Visualization orbit readout
Latitude
Unknown
Longitude
Unknown
Altitude
Unknown
Speed
Unknown
Apparent Right ascension
Unknown
Apparent Declination
Unknown
Sunlit
N/A
Visualization observer readout
Local Sidereal Time
21:31:24
Azimuth
Unknown
Elevation
Unknown
Doppler factor
Unknown
Orbital elements
Apogee altitude
463.792 km
Perigee altitude
462.054 km
Semi-major axis
6,841.06 km
Eccentricity
0.00013
Inclination
53.161°
RAAN
36.235°
Arg. of periapsis
98.2545°
True anomaly
261.84569°
Mean anomaly
261.8601°
Eccentric anomaly
261.8529°
Mean motion
3.83582 °/min
Orbital period
93.85 mins
BSTAR
0.000094165
Loading maneuver chart data...
Computing Atmospheric mass density...
Loading historical data...
Loading historical data...
Loading historical data...
Loading historical data...
Loading historical data...
Loading historical data...
Loading historical data...

Documentation

Showing up to 5 results
|